AirNav   Bose ProFlight Aviation Headset
 
 959 users online  

B04 Garnseys Airport
Schuylerville, New York, USA

GOING TO SCHUYLERVILLE?


FAA INFORMATION EFFECTIVE 13 SEPTEMBER 2018

Location

FAA Identifier: B04
Lat/Long: 43-04-03.5150N / 073-35-01.8250W
43-04.058583N / 073-35.030417W
43.0676431 / -73.5838403
(estimated)
Elevation: 100 ft. / 30 m (estimated)
Variation: 14W (1985)
From city: 1 mile S of SCHUYLERVILLE, NY
Time zone: UTC -4 (UTC -5 during Standard Time)
Zip code: 12871

Airport Operations

Airport use: Open to the public
Activation date: 06/1945
Control tower: no
ARTCC: BOSTON CENTER
FSS: BURLINGTON FLIGHT SERVICE STATION
NOTAMs facility: BTV (NOTAM-D service available)
Attendance: MAY-SEP DAYLIGHT HOURS
Wind indicator: yes
Segmented circle: no

Airport Communications

CTAF: 122.9
WX AWOS-3 at 5B2 (12 nm W): 132.025 (518-884-9289)
WX ASOS at GFL (16 nm N): 119.925 (518-743-1728)
WX ASOS at DDH (18 nm SE): 135.925 (802-442-6059)
WX AWOS-3 at SCH (20 nm SW): 119.275 (518-399-6586)

Nearby radio navigation aids

VOR radial/distance  VOR name  Freq  Var
CAMr307/11.4CAMBRIDGE VOR/DME115.0014W
GFLr190/16.5GLENS FALLS VORTAC110.2014W
ALBr040/21.5ALBANY VORTAC115.3013W
RUTr240/39.0RUTLAND VOR/DME111.0015W

 
NDB name  Hdg/Dist  Freq  Var  ID
GANSE189/11.320914WGF --. ..-.
HUNTER064/20.035614WHEU .... . ..-
JOHNSTOWN097/33.052314WJJH .--- .--- ....

Airport Services

Parking: tiedowns
Airframe service: NONE
Powerplant service: NONE

Runway Information

Runway 2/20

Dimensions: 2500 x 90 ft. / 762 x 27 m
Surface: turf, in good condition
RUNWAY 2  RUNWAY 20
Latitude: 43-03.853500N43-04.263667N
Longitude: 073-35.052667W073-35.008167W
Elevation: 90.0 ft.95.0 ft.
Traffic pattern: leftleft
Runway heading: 019 magnetic, 005 true199 magnetic, 185 true
Obstructions: 10 ft. road10 ft. road

Runway 2W/20W

Dimensions: 9999 x 750 ft. / 3048 x 229 m
Surface: water
RUNWAY 2W  RUNWAY 20W
Traffic pattern: leftleft

Airport Ownership and Management from official FAA records

Ownership: Privately-owned
Owner: MR. ZENE GARNSEY
RFD 952 - ROUTE 4 SOUTH
SCHUYLERVILLE, NY 12871
Phone 518-695-3346
Manager: MR. ZENE GARNSEY
RFD 952 - ROUTE 4 SOUTH
SCHUYLERVILLE, NY 12871
Phone 518-695-3346

Airport Operational Statistics

Aircraft based on the field: 3
Single engine airplanes: 3
    
Aircraft operations: avg 21/week *
73% local general aviation
27% transient general aviation
* for 12-month period ending 17 September 2015

Additional Remarks

TURF STRIP MAY BE SOFT IN SPRING.
ARPT OPEN DALGT HRS ONLY.
NUMEROUS BLDGS IN APCH TO RY 20.
TIEDOWNS LOCATED IMMED. NORTH OF DRIVEWAY ADJ TO RY 20 END.

Instrument Procedures

There are no published instrument procedures at B04.

Some nearby airports with instrument procedures:

5B2 - Saratoga County Airport (12 nm W)
KGFL - Floyd Bennett Memorial Airport (16 nm N)
KDDH - William H Morse State Airport (18 nm SE)
KSCH - Schenectady County Airport (20 nm SW)
KALB - Albany International Airport (21 nm SW)
 
Loc | Ops | Rwys | IFR | FBO | Links
Com | Nav | Svcs | Stats | Notes


 
Area around B04 (Garnseys Airport)
 
Road maps at: MapQuest Bing Google
 
Aerial photo
WARNING: Photo may not be current or correct
Aerial photo of B04 (Garnseys Airport)
Photo taken 12-Sep-2007

Do you have a better or more recent aerial photo of Garnseys Airport that you would like to share? If so, please send us your photo.

 
Sectional chart

 
Airport distance calculator
Flying to Garnseys Airport? Find the distance to fly.

From to B04

Sunrise and sunset
Times for 22-Sep-2018
 Local
(UTC-4)
 Zulu
(UTC)
Morning civil twilight06:1410:14
Sunrise06:4310:43
Sunset18:5222:52
Evening civil twilight19:2023:20

Current date and time
Zulu (UTC)  22-Sep-2018 13:34:03
Local (UTC-4)  22-Sep-2018 09:34:03
 
METAR
KGFL 
16nm N 
221253Z AUTO 32013KT 10SM CLR 14/06 A3012 RMK AO2 SLP199 T01390061
KDDH 
18nm SE 
221254Z AUTO 30007KT 270V330 10SM BKN040 16/09 A3010 RMK AO2 SLP190 T01610089
KSCH 
20nm SW 
221255Z 28008G16KT 15SM FEW040 SCT150 BKN250 15/09 A3014
KALB 
21nm SW 
221251Z 29013G19KT 10SM FEW040 FEW140 SCT250 BKN270 16/09 A3013 RMK AO2 SLP201 T01610089
KAQW 
29nm SE 
221252Z AUTO 27011KT 10SM SCT040 BKN047 15/09 A3010 RMK AO2 SLP191 T01500094
TAF
KGFL 
16nm N 
221131Z 2212/2312 28006KT P6SM SCT045 BKN250 FM221400 35010G15KT P6SM SCT040 BKN250 FM221900 04007KT P6SM BKN250 FM230100 VRB03KT P6SM SCT250 FM231000 00000KT 6SM BR FEW002
NOTAMs
Click for the latest NOTAMs
NOTAMs are issued by the DoD/FAA and will open in a separate window not controlled by AirNav.

 

 
 

Would you like to see your business listed on this page?

 If your business provides an interesting product or service to pilots, flight crews, aircraft, or users of the Garnseys Airport, you should consider listing it here.  To start the listing process, click on the button below
 
Add a business
 

Other Pages about Garnseys Airport

Update a link
 
Copyright © AirNav, LLC. All rights reserved. Privacy Policy  Contact